SWR8101 LSZH-LSZB

Flight info

Callsign SWR8101
Flight time 0h 15m
Altitude 9000
Route VEBIT4W VEBIT T544 WIL Z601 ROTOS ROTOS4M
Aircraft A320/M-SDE3FGHIRWY/LB1

Departure

Time 2026-05-01 09:53
Airport Zürich Airport (LSZH)

Arrival

Time 2026-05-01 10:08
Airport Bern Airport (LSZB)
Time Latitude Longitude Altitude Speed Heading
2026-05-01 09:32 47.44646 8.56509 1403 ft 0 kts 336°
2026-05-01 09:43 47.44637 8.56515 1410 ft 4 kts 337°
2026-05-01 09:43 47.44612 8.56530 1405 ft 4 kts 339°
2026-05-01 09:44 47.44561 8.56557 1408 ft 4 kts 342°
2026-05-01 09:44 47.44535 8.56569 1410 ft 4 kts 340°
2026-05-01 09:44 47.44515 8.56580 1407 ft 0 kts 334°
2026-05-01 09:46 47.44516 8.56580 1408 ft 2 kts 334°
2026-05-01 09:46 47.44554 8.56548 1406 ft 10 kts 319°
2026-05-01 09:47 47.44547 8.56430 1406 ft 16 kts 245°
2026-05-01 09:47 47.44506 8.56269 1402 ft 17 kts 270°
2026-05-01 09:47 47.44600 8.56170 1398 ft 19 kts 335°
2026-05-01 09:47 47.44717 8.56091 1398 ft 18 kts 334°
2026-05-01 09:48 47.44839 8.56005 1399 ft 21 kts 334°
2026-05-01 09:48 47.44947 8.55876 1401 ft 20 kts 278°
2026-05-01 09:48 47.45016 8.55729 1412 ft 16 kts 333°
2026-05-01 09:48 47.45121 8.55660 1410 ft 18 kts 335°
2026-05-01 09:49 47.45258 8.55572 1411 ft 24 kts 346°
2026-05-01 09:49 47.45417 8.55480 1413 ft 26 kts 334°
2026-05-01 09:49 47.45588 8.55363 1401 ft 23 kts 336°
2026-05-01 09:49 47.45670 8.55411 1401 ft 16 kts 91°
2026-05-01 09:50 47.45657 8.55607 1404 ft 22 kts 96°
2026-05-01 09:50 47.45639 8.55861 1408 ft 26 kts 95°
2026-05-01 09:50 47.45621 8.56130 1411 ft 27 kts 97°
2026-05-01 09:50 47.45600 8.56403 1417 ft 27 kts 96°
2026-05-01 09:51 47.45581 8.56680 1418 ft 27 kts 97°
2026-05-01 09:51 47.45564 8.56904 1420 ft 13 kts 96°
2026-05-01 09:51 47.45593 8.57014 1423 ft 10 kts 27°
2026-05-01 09:51 47.45656 8.57020 1425 ft 8 kts 333°
2026-05-01 09:52 47.45664 8.56978 1424 ft 0 kts 275°
2026-05-01 09:52 47.45667 8.56935 1424 ft 21 kts 276°
2026-05-01 09:52 47.45713 8.56302 1415 ft 100 kts 276°
2026-05-01 09:52 47.45809 8.54965 1439 ft 153 kts 276°
2026-05-01 09:53 47.45909 8.53393 2059 ft 157 kts 278°
2026-05-01 09:53 47.46022 8.51774 2843 ft 159 kts 276°
2026-05-01 09:53 47.46138 8.50158 3526 ft 158 kts 275°
2026-05-01 09:53 47.46227 8.48547 4183 ft 157 kts 263°
2026-05-01 09:54 47.45774 8.47129 4757 ft 158 kts 220°
2026-05-01 09:54 47.44786 8.46214 5107 ft 179 kts 215°
2026-05-01 09:54 47.43853 8.44839 5446 ft 201 kts 232°
2026-05-01 09:54 47.42971 8.43066 5758 ft 226 kts 234°
2026-05-01 09:55 47.42027 8.41061 6203 ft 251 kts 235°
2026-05-01 09:55 47.40991 8.38871 6882 ft 266 kts 234°
2026-05-01 09:55 47.39901 8.36609 7708 ft 274 kts 233°
2026-05-01 09:55 47.38782 8.34276 8529 ft 283 kts 237°
2026-05-01 09:56 47.37896 8.31645 9389 ft 289 kts 243°
2026-05-01 09:56 47.36989 8.28954 10266 ft 296 kts 242°
2026-05-01 09:56 47.36017 8.26195 10801 ft 314 kts 241°
2026-05-01 09:56 47.34955 8.23239 11118 ft 338 kts 241°
2026-05-01 09:57 47.33828 8.20118 11378 ft 360 kts 241°
2026-05-01 09:57 47.32633 8.16810 11964 ft 370 kts 241°
2026-05-01 09:57 47.31436 8.13419 12252 ft 374 kts 243°
2026-05-01 09:57 47.30305 8.09922 12326 ft 390 kts 244°
2026-05-01 09:58 47.29165 8.06172 12330 ft 409 kts 245°
2026-05-01 09:58 47.28026 8.02301 12332 ft 413 kts 246°
2026-05-01 09:58 47.26888 7.98415 12322 ft 412 kts 246°
2026-05-01 09:58 47.25758 7.94598 12082 ft 402 kts 245°
2026-05-01 09:59 47.24636 7.90861 11785 ft 397 kts 245°
2026-05-01 09:59 47.23513 7.87173 11495 ft 390 kts 245°
2026-05-01 09:59 47.22414 7.83600 11194 ft 377 kts 244°
2026-05-01 09:59 47.21351 7.80157 10906 ft 364 kts 245°
2026-05-01 10:00 47.20319 7.76818 10599 ft 352 kts 244°
2026-05-01 10:00 47.19341 7.73655 10317 ft 328 kts 244°
2026-05-01 10:00 47.18300 7.70802 10013 ft 307 kts 238°
2026-05-01 10:00 47.17227 7.68156 9698 ft 297 kts 238°
2026-05-01 10:01 47.16181 7.65557 9388 ft 295 kts 239°
2026-05-01 10:01 47.15143 7.62972 9083 ft 292 kts 238°
2026-05-01 10:01 47.14115 7.60416 8778 ft 290 kts 238°
2026-05-01 10:01 47.13096 7.57879 8470 ft 288 kts 239°
2026-05-01 10:02 47.12314 7.55178 8173 ft 288 kts 254°
2026-05-01 10:02 47.11860 7.52339 7872 ft 284 kts 257°
2026-05-01 10:02 47.11420 7.49521 7583 ft 281 kts 257°
2026-05-01 10:02 47.10984 7.46749 7286 ft 274 kts 257°
2026-05-01 10:03 47.10570 7.44136 6979 ft 258 kts 257°
2026-05-01 10:03 47.10175 7.41642 6689 ft 244 kts 257°
2026-05-01 10:03 47.09799 7.39291 6409 ft 230 kts 255°
2026-05-01 10:03 47.09150 7.37193 6178 ft 224 kts 235°
2026-05-01 10:04 47.08084 7.35561 5955 ft 221 kts 217°
2026-05-01 10:04 47.06775 7.34416 5735 ft 219 kts 209°
2026-05-01 10:04 47.05326 7.33847 5506 ft 218 kts 178°
2026-05-01 10:04 47.03896 7.34473 5280 ft 216 kts 147°
2026-05-01 10:05 47.02726 7.35835 5059 ft 215 kts 140°
2026-05-01 10:05 47.01603 7.37238 4910 ft 209 kts 140°
2026-05-01 10:05 47.00477 7.38625 4598 ft 210 kts 141°
2026-05-01 10:05 46.99368 7.39987 4262 ft 206 kts 140°
2026-05-01 10:06 46.98296 7.41299 3905 ft 194 kts 140°
2026-05-01 10:06 46.97290 7.42530 3550 ft 184 kts 140°
2026-05-01 10:06 46.96350 7.43680 3216 ft 169 kts 140°
2026-05-01 10:06 46.95483 7.44740 2928 ft 158 kts 140°
2026-05-01 10:07 46.94663 7.45742 2645 ft 150 kts 140°
2026-05-01 10:07 46.93869 7.46712 2371 ft 147 kts 139°
2026-05-01 10:07 46.93094 7.47663 2092 ft 145 kts 138°
2026-05-01 10:07 46.92337 7.48589 1847 ft 143 kts 139°
2026-05-01 10:08 46.91215 7.49955 1684 ft 41 kts 140°
2026-05-01 10:08 46.91012 7.50203 1735 ft 36 kts 139°
2026-05-01 10:08 46.90905 7.50337 1731 ft 7 kts 124°
2026-05-01 10:09 46.90916 7.50380 1726 ft 3 kts 46°
2026-05-01 10:09 46.90927 7.50397 1727 ft 5 kts 45°
2026-05-01 10:09 46.90967 7.50399 1731 ft 6 kts 329°
2026-05-01 10:09 46.90997 7.50365 1726 ft 6 kts 321°
2026-05-01 10:10 46.91034 7.50328 1730 ft 6 kts 324°
2026-05-01 10:10 46.91061 7.50295 1726 ft 4 kts 320°
2026-05-01 10:10 46.91159 7.50173 1731 ft 8 kts 318°
2026-05-01 10:11 46.91193 7.50169 1732 ft 2 kts 70°
2026-05-01 10:11 46.91200 7.50197 1728 ft 3 kts 72°
2026-05-01 10:11 46.91199 7.50204 1728 ft 0 kts 95°